Location: Mohawk View
(42.7837°N, 73.7885°W)
Time: 08:28:56
(UTC+00:00)

Cosmos 1953 - Pass Details

Date: 17 June 2021
Orbit: 538 x 557 km, 82.5° (Epoch: 27 July)

Event Time Altitude Azimuth Distance (km) Brightness Sun altitude
Rises 01:54:09 0° 358° (N) 2,751 6.7 -11.7°
Reaches altitude 10° 01:56:26 10° 6° (N) 1,851 5.6 -12.0°
Maximum altitude 02:00:18 41° 77° (ENE) 813 2.9 -12.4°
Enters shadow 02:02:42 20° 139° (SE) 1,309 3.6 -12.7°
